Time,TemperatureF,DewpointF,PressureIn,WindDirection,WindDirectionDegrees,WindSpeedMPH,WindSpeedGustMPH,Humidity,HourlyPrecipIn,Conditions,Clouds,dailyrainin,SoftwareType,DateUTC
2013-09-30 00:02:00,46.5,33.8,29.54,SSW,201,9.0,9.0,61,0.00,,---,0.00,VWS V13.00,2013-09-30 06:02:00,
2013-09-30 00:07:00,46.8,33.7,29.53,SW,218,4.0,10.0,60,0.00,,---,0.00,VWS V13.00,2013-09-30 06:07:00,
2013-09-30 00:12:00,47.1,33.5,29.53,SW,223,8.0,9.0,59,0.00,,---,0.00,VWS V13.00,2013-09-30 06:12:00,
2013-09-30 00:17:00,47.4,33.8,29.53,SW,218,3.0,11.0,59,0.00,,---,0.00,VWS V13.00,2013-09-30 06:17:00,
2013-09-30 00:22:00,47.6,33.6,29.53,SW,227,4.0,11.0,58,0.00,,---,0.00,VWS V13.00,2013-09-30 06:22:00,
2013-09-30 00:27:00,47.6,34.0,29.53,SW,227,6.0,11.0,59,0.00,,---,0.00,VWS V13.00,2013-09-30 06:27:00,
2013-09-30 00:32:00,47.6,34.4,29.53,WSW,240,9.0,11.0,60,0.00,,---,0.00,VWS V13.00,2013-09-30 06:32:00,
2013-09-30 00:37:00,47.6,34.4,29.52,SW,220,8.0,11.0,60,0.00,,---,0.00,VWS V13.00,2013-09-30 06:37:00,
2013-09-30 00:42:00,47.7,34.1,29.52,SW,218,5.0,9.0,59,0.00,,---,0.00,VWS V13.00,2013-09-30 06:42:00,
2013-09-30 00:47:00,47.8,34.2,29.52,SW,224,3.0,9.0,59,0.00,,---,0.00,VWS V13.00,2013-09-30 06:47:00,
2013-09-30 00:52:00,47.8,34.2,29.51,SW,223,6.0,9.0,59,0.00,,---,0.00,VWS V13.00,2013-09-30 06:52:00,
2013-09-30 00:57:00,47.9,34.3,29.51,SW,227,8.0,11.0,59,0.00,,---,0.00,VWS V13.00,2013-09-30 06:57:00,
2013-09-30 01:02:00,48.1,34.0,29.51,SW,225,2.0,11.0,58,0.00,,---,0.00,VWS V13.00,2013-09-30 07:02:00,
2013-09-30 01:07:00,48.3,34.2,29.51,SW,225,4.0,11.0,58,0.00,,---,0.00,VWS V13.00,2013-09-30 07:07:00,
2013-09-30 01:12:00,48.3,34.2,29.51,SW,223,3.0,6.0,58,0.00,,---,0.00,VWS V13.00,2013-09-30 07:12:00,
2013-09-30 01:17:00,48.4,34.3,29.51,SW,223,3.0,6.0,58,0.00,,---,0.00,VWS V13.00,2013-09-30 07:17:00,
2013-09-30 01:22:00,48.5,34.4,29.49,SW,219,3.0,9.0,58,0.00,,---,0.00,VWS V13.00,2013-09-30 07:22:00,
2013-09-30 01:27:00,48.7,34.6,29.49,SW,220,1.0,9.0,58,0.00,,---,0.00,VWS V13.00,2013-09-30 07:27:00,
2013-09-30 01:32:00,48.8,34.7,29.49,SW,219,2.0,9.0,58,0.00,,---,0.00,VWS V13.00,2013-09-30 07:32:00,
2013-09-30 01:37:00,48.8,35.1,29.48,SW,220,1.0,9.0,59,0.00,,---,0.00,VWS V13.00,2013-09-30 07:37:00,
2013-09-30 01:42:00,48.8,35.5,29.48,SW,221,4.0,6.0,60,0.00,,---,0.00,VWS V13.00,2013-09-30 07:42:00,
2013-09-30 01:47:00,48.7,35.9,29.48,SW,221,6.0,7.0,61,0.00,,---,0.00,VWS V13.00,2013-09-30 07:47:00,
2013-09-30 01:52:00,48.5,35.7,29.49,SW,221,3.0,7.0,61,0.00,,---,0.00,VWS V13.00,2013-09-30 07:52:00,
2013-09-30 01:57:00,48.3,35.9,29.49,SW,221,5.0,7.0,62,0.00,,---,0.00,VWS V13.00,2013-09-30 07:57:00,
2013-09-30 02:02:00,48.1,36.1,29.49,SW,229,5.0,10.0,63,0.00,,---,0.00,VWS V13.00,2013-09-30 08:02:00,
2013-09-30 02:07:00,48.2,36.2,29.49,SW,230,5.0,10.0,63,0.00,,---,0.00,VWS V13.00,2013-09-30 08:07:00,
2013-09-30 02:12:00,48.3,36.3,29.49,SW,231,4.0,6.0,63,0.00,,---,0.00,VWS V13.00,2013-09-30 08:12:00,
2013-09-30 02:17:00,48.5,36.1,29.49,SW,230,3.0,6.0,62,0.00,,---,0.00,VWS V13.00,2013-09-30 08:17:00,
2013-09-30 02:22:00,48.6,35.8,29.49,SW,231,3.0,6.0,61,0.00,,---,0.00,VWS V13.00,2013-09-30 08:22:00,
2013-09-30 02:27:00,48.7,35.9,29.49,SW,230,4.0,6.0,61,0.00,,---,0.00,VWS V13.00,2013-09-30 08:27:00,
2013-09-30 02:32:00,48.7,35.9,29.49,SW,230,3.0,6.0,61,0.00,,---,0.00,VWS V13.00,2013-09-30 08:32:00,
2013-09-30 02:37:00,48.7,35.5,29.48,SW,230,3.0,6.0,60,0.00,,---,0.00,VWS V13.00,2013-09-30 08:37:00,
2013-09-30 02:42:00,48.6,35.8,29.48,SW,230,3.0,3.0,61,0.00,,---,0.00,VWS V13.00,2013-09-30 08:42:00,
2013-09-30 02:47:00,48.5,35.3,29.48,SW,230,3.0,4.0,60,0.00,,---,0.00,VWS V13.00,2013-09-30 08:47:00,
2013-09-30 02:52:00,48.5,35.7,29.47,SW,230,5.0,6.0,61,0.00,,---,0.00,VWS V13.00,2013-09-30 08:52:00,
2013-09-30 02:57:00,48.7,35.9,29.47,SW,227,5.0,10.0,61,0.00,,---,0.00,VWS V13.00,2013-09-30 08:57:00,
2013-09-30 03:02:00,49.0,36.2,29.47,SSW,213,4.0,10.0,61,0.00,,---,0.00,VWS V13.00,2013-09-30 09:02:00,
2013-09-30 03:06:00,49.5,36.2,29.46,SW,215,0.0,10.0,60,0.00,,---,0.00,VWS V13.00,2013-09-30 09:06:00,
2013-09-30 03:11:00,50.0,37.5,29.46,SW,219,0.0,0.0,62,0.00,,---,0.00,VWS V13.00,2013-09-30 09:11:00,
2013-09-30 03:16:00,50.3,37.0,29.46,SW,223,0.0,7.0,60,0.00,,---,0.00,VWS V13.00,2013-09-30 09:16:00,
2013-09-30 03:22:00,50.5,37.2,29.44,SW,226,6.0,10.0,60,0.00,,---,0.00,VWS V13.00,2013-09-30 09:22:00,
2013-09-30 03:27:00,50.6,37.7,29.44,SW,229,4.0,12.0,61,0.00,,---,0.00,VWS V13.00,2013-09-30 09:27:00,
2013-09-30 03:32:00,50.9,38.0,29.44,SW,236,0.0,12.0,61,0.00,,---,0.00,VWS V13.00,2013-09-30 09:32:00,
2013-09-30 03:37:00,51.2,38.6,29.43,WSW,242,11.0,16.0,62,0.00,,---,0.00,VWS V13.00,2013-09-30 09:37:00,
2013-09-30 03:42:00,52.0,39.0,29.43,WSW,238,10.0,19.0,61,0.00,,---,0.00,VWS V13.00,2013-09-30 09:42:00,
2013-09-30 03:47:00,52.7,39.2,29.43,SW,230,13.0,19.0,60,0.00,,---,0.00,VWS V13.00,2013-09-30 09:47:00,
2013-09-30 03:52:00,53.0,39.1,29.42,SW,236,10.0,19.0,59,0.00,,---,0.00,VWS V13.00,2013-09-30 09:52:00,
2013-09-30 03:57:00,53.3,39.8,29.42,WSW,244,13.0,21.0,60,0.00,,---,0.00,VWS V13.00,2013-09-30 09:57:00,
2013-09-30 04:02:00,53.6,40.1,29.42,SW,235,14.0,23.0,60,0.00,,---,0.00,VWS V13.00,2013-09-30 10:02:00,
2013-09-30 04:07:00,53.8,40.3,29.40,SSW,209,14.0,27.0,60,0.00,,---,0.00,VWS V13.00,2013-09-30 10:07:00,
2013-09-30 04:12:00,53.9,40.3,29.40,SW,229,16.0,26.0,60,0.00,,---,0.00,VWS V13.00,2013-09-30 10:12:00,
2013-09-30 04:17:00,53.9,40.3,29.40,SSW,212,12.0,30.0,60,0.00,,---,0.00,VWS V13.00,2013-09-30 10:17:00,
2013-09-30 04:22:00,54.0,40.4,29.38,WSW,242,12.0,31.0,60,0.00,,---,0.00,VWS V13.00,2013-09-30 10:22:00,
2013-09-30 04:27:00,53.8,40.3,29.38,WSW,238,16.0,31.0,60,0.00,,---,0.00,VWS V13.00,2013-09-30 10:27:00,
2013-09-30 04:32:00,53.6,40.1,29.38,WSW,238,17.0,31.0,60,0.00,,---,0.00,VWS V13.00,2013-09-30 10:32:00,
2013-09-30 04:37:00,53.6,40.1,29.38,WSW,241,19.0,19.0,60,0.00,,---,0.00,VWS V13.00,2013-09-30 10:37:00,
2013-09-30 04:42:00,53.6,40.1,29.38,WSW,242,25.0,28.0,60,0.00,,---,0.00,VWS V13.00,2013-09-30 10:42:00,
2013-09-30 04:47:00,53.8,40.3,29.38,WSW,240,18.0,28.0,60,0.00,,---,0.00,VWS V13.00,2013-09-30 10:47:00,
2013-09-30 04:52:00,54.0,40.4,29.37,SW,226,14.0,28.0,60,0.00,,---,0.00,VWS V13.00,2013-09-30 10:52:00,
2013-09-30 04:57:00,54.0,40.9,29.37,SW,225,15.0,28.0,61,0.00,,---,0.00,VWS V13.00,2013-09-30 10:57:00,
2013-09-30 05:02:00,53.9,40.8,29.37,WSW,245,15.0,28.0,61,0.00,,---,0.00,VWS V13.00,2013-09-30 11:02:00,
2013-09-30 05:07:00,53.8,40.7,29.36,SW,227,20.0,22.0,61,0.00,,---,0.00,VWS V13.00,2013-09-30 11:07:00,
2013-09-30 05:12:00,53.7,40.6,29.36,SW,222,14.0,25.0,61,0.00,,---,0.00,VWS V13.00,2013-09-30 11:12:00,
2013-09-30 05:17:00,53.5,40.8,29.36,SW,230,9.0,25.0,62,0.00,,---,0.00,VWS V13.00,2013-09-30 11:17:00,
2013-09-30 05:22:00,53.5,40.4,29.36,WSW,244,27.0,29.0,61,0.00,,---,0.00,VWS V13.00,2013-09-30 11:22:00,
2013-09-30 05:27:00,53.6,40.5,29.36,SW,233,19.0,29.0,61,0.00,,---,0.00,VWS V13.00,2013-09-30 11:27:00,
2013-09-30 05:32:00,53.6,40.5,29.36,WSW,239,16.0,29.0,61,0.00,,---,0.00,VWS V13.00,2013-09-30 11:32:00,
2013-09-30 05:37:00,53.7,40.6,29.35,WSW,254,18.0,19.0,61,0.00,,---,0.00,VWS V13.00,2013-09-30 11:37:00,
2013-09-30 05:42:00,53.7,40.6,29.35,SW,236,18.0,26.0,61,0.00,,---,0.00,VWS V13.00,2013-09-30 11:42:00,
2013-09-30 05:47:00,53.9,40.3,29.35,WSW,240,15.0,27.0,60,0.00,,---,0.00,VWS V13.00,2013-09-30 11:47:00,
2013-09-30 05:52:00,53.8,40.7,29.35,SW,220,10.0,27.0,61,0.00,,---,0.00,VWS V13.00,2013-09-30 11:52:00,
2013-09-30 05:57:00,53.8,40.7,29.35,WSW,244,11.0,27.0,61,0.00,,---,0.00,VWS V13.00,2013-09-30 11:57:00,
2013-09-30 06:02:00,53.8,40.3,29.35,WSW,240,13.0,27.0,60,0.00,,---,0.00,VWS V13.00,2013-09-30 12:02:00,
2013-09-30 06:07:00,53.9,39.9,29.36,WSW,245,14.0,21.0,59,0.00,,---,0.00,VWS V13.00,2013-09-30 12:07:00,
2013-09-30 06:12:00,54.1,40.1,29.36,SW,227,5.0,21.0,59,0.00,,---,0.00,VWS V13.00,2013-09-30 12:12:00,
2013-09-30 06:17:00,54.2,39.8,29.36,WSW,252,4.0,21.0,58,0.00,,---,0.00,VWS V13.00,2013-09-30 12:17:00,
2013-09-30 06:22:00,54.5,38.7,29.35,WSW,245,19.0,27.0,55,0.00,,---,0.00,VWS V13.00,2013-09-30 12:22:00,
2013-09-30 06:27:00,55.1,39.2,29.35,WSW,244,16.0,27.0,55,0.00,,---,0.00,VWS V13.00,2013-09-30 12:27:00,
2013-09-30 06:32:00,55.6,38.8,29.35,SSW,207,7.0,27.0,53,0.00,,---,0.00,VWS V13.00,2013-09-30 12:32:00,
2013-09-30 06:37:00,55.8,38.9,29.36,SW,230,11.0,15.0,53,0.00,,---,0.00,VWS V13.00,2013-09-30 12:37:00,
2013-09-30 06:42:00,55.9,39.0,29.36,WSW,238,9.0,20.0,53,0.00,,---,0.00,VWS V13.00,2013-09-30 12:42:00,
2013-09-30 06:47:00,55.9,39.0,29.36,SW,223,5.0,20.0,53,0.00,,---,0.00,VWS V13.00,2013-09-30 12:47:00,
2013-09-30 06:52:00,55.9,39.5,29.36,SW,230,5.0,20.0,54,0.00,,---,0.00,VWS V13.00,2013-09-30 12:52:00,
2013-09-30 06:57:00,55.7,39.3,29.36,SW,234,6.0,20.0,54,0.00,,---,0.00,VWS V13.00,2013-09-30 12:57:00,
2013-09-30 07:02:00,55.4,39.0,29.36,SW,234,7.0,20.0,54,0.00,,---,0.00,VWS V13.00,2013-09-30 13:02:00,
2013-09-30 07:07:00,55.3,39.9,29.37,SW,232,10.0,13.0,56,0.00,,---,0.00,VWS V13.00,2013-09-30 13:07:00,
2013-09-30 07:12:00,55.3,39.9,29.37,SW,227,11.0,17.0,56,0.00,,---,0.00,VWS V13.00,2013-09-30 13:12:00,
2013-09-30 07:17:00,55.2,40.2,29.37,SW,222,11.0,17.0,57,0.00,,---,0.00,VWS V13.00,2013-09-30 13:17:00,
2013-09-30 07:22:00,55.1,40.2,29.37,SW,222,5.0,17.0,57,0.00,,---,0.00,VWS V13.00,2013-09-30 13:22:00,
2013-09-30 07:27:00,55.1,40.6,29.37,SW,232,4.0,17.0,58,0.00,,---,0.00,VWS V13.00,2013-09-30 13:27:00,
2013-09-30 07:32:00,54.9,40.4,29.37,SW,230,3.0,17.0,58,0.00,,---,0.00,VWS V13.00,2013-09-30 13:32:00,
2013-09-30 07:37:00,54.8,40.3,29.37,SSW,193,5.0,6.0,58,0.00,,---,0.00,VWS V13.00,2013-09-30 13:37:00,
2013-09-30 07:42:00,54.6,40.1,29.37,South,179,3.0,6.0,58,0.00,,---,0.00,VWS V13.00,2013-09-30 13:42:00,
2013-09-30 07:47:00,54.6,40.6,29.37,South,188,0.0,6.0,59,0.00,,---,0.00,VWS V13.00,2013-09-30 13:47:00,
2013-09-30 07:52:00,54.6,41.0,29.36,SSW,195,9.0,10.0,60,0.00,,---,0.00,VWS V13.00,2013-09-30 13:52:00,
2013-09-30 07:57:00,54.7,41.1,29.36,SW,236,4.0,11.0,60,0.00,,---,0.00,VWS V13.00,2013-09-30 13:57:00,
2013-09-30 08:02:00,55.0,41.4,29.36,SW,227,13.0,16.0,60,0.00,,---,0.00,VWS V13.00,2013-09-30 14:02:00,
2013-09-30 08:07:00,55.3,41.7,29.35,SW,221,12.0,12.0,60,0.00,,---,0.00,VWS V13.00,2013-09-30 14:07:00,
2013-09-30 08:12:00,55.6,41.5,29.35,SSW,201,7.0,14.0,59,0.00,,---,0.00,VWS V13.00,2013-09-30 14:12:00,
2013-09-30 08:17:00,55.9,42.2,29.35,SW,218,9.0,14.0,60,0.00,,---,0.00,VWS V13.00,2013-09-30 14:17:00,
2013-09-30 08:22:00,56.0,41.5,29.36,SW,236,9.0,14.0,58,0.00,,---,0.00,VWS V13.00,2013-09-30 14:22:00,
2013-09-30 08:27:00,56.2,41.2,29.36,WSW,237,0.0,14.0,57,0.00,,---,0.00,VWS V13.00,2013-09-30 14:27:00,
2013-09-30 08:32:00,56.3,41.7,29.36,WNW,285,9.0,14.0,58,0.00,,---,0.00,VWS V13.00,2013-09-30 14:32:00,
2013-09-30 08:37:00,56.3,41.3,29.36,West,263,0.0,0.0,57,0.00,,---,0.00,VWS V13.00,2013-09-30 14:37:00,
2013-09-30 08:42:00,56.3,41.7,29.36,West,265,0.0,0.0,58,0.00,,---,0.00,VWS V13.00,2013-09-30 14:42:00,
2013-09-30 08:47:00,56.3,41.7,29.36,West,265,0.0,0.0,58,0.00,,---,0.00,VWS V13.00,2013-09-30 14:47:00,
2013-09-30 08:52:00,56.2,42.1,29.35,West,265,0.0,0.0,59,0.00,,---,0.00,VWS V13.00,2013-09-30 14:52:00,
2013-09-30 08:57:00,56.2,42.5,29.35,West,265,0.0,0.0,60,0.00,,---,0.00,VWS V13.00,2013-09-30 14:57:00,
2013-09-30 09:02:00,56.1,42.0,29.35,West,265,0.0,0.0,59,0.00,,---,0.00,VWS V13.00,2013-09-30 15:02:00,
2013-09-30 09:07:00,56.0,42.3,29.34,West,265,0.0,0.0,60,0.00,,---,0.00,VWS V13.00,2013-09-30 15:07:00,
2013-09-30 09:12:00,56.0,41.9,29.34,West,265,0.0,0.0,59,0.00,,---,0.00,VWS V13.00,2013-09-30 15:12:00,
2013-09-30 09:17:00,56.0,41.9,29.34,West,265,0.0,0.0,59,0.00,,---,0.00,VWS V13.00,2013-09-30 15:17:00,
2013-09-30 09:22:00,55.9,42.2,29.34,West,265,0.0,0.0,60,0.00,,---,0.00,VWS V13.00,2013-09-30 15:22:00,
2013-09-30 09:27:00,55.8,43.0,29.34,West,265,0.0,0.0,62,0.00,,---,0.00,VWS V13.00,2013-09-30 15:27:00,
2013-09-30 09:32:00,55.8,43.0,29.34,West,265,0.0,0.0,62,0.00,,---,0.00,VWS V13.00,2013-09-30 15:32:00,
2013-09-30 09:37:00,55.7,42.9,29.34,West,265,0.0,0.0,62,0.00,,---,0.00,VWS V13.00,2013-09-30 15:37:00,
2013-09-30 09:42:00,55.8,44.6,29.34,SW,232,5.0,7.0,66,0.00,,---,0.00,VWS V13.00,2013-09-30 15:42:00,
2013-09-30 09:47:00,55.6,45.2,29.34,West,264,2.0,12.0,68,0.00,,---,0.00,VWS V13.00,2013-09-30 15:47:00,
2013-09-30 09:52:00,54.9,45.7,29.37,NW,308,13.0,14.0,71,0.00,,---,0.00,VWS V13.00,2013-09-30 15:52:00,
2013-09-30 09:57:00,53.3,45.9,29.37,WNW,288,24.0,25.0,76,0.01,,---,0.01,VWS V13.00,2013-09-30 15:57:00,
2013-09-30 10:02:00,51.8,45.8,29.37,NW,305,30.0,30.0,80,0.03,,---,0.03,VWS V13.00,2013-09-30 16:02:00,
2013-09-30 10:07:00,50.1,44.8,29.43,WNW,301,27.0,32.0,82,0.05,,---,0.05,VWS V13.00,2013-09-30 16:07:00,
2013-09-30 10:12:00,48.5,44.2,29.43,WNW,296,32.0,38.0,85,0.06,,---,0.06,VWS V13.00,2013-09-30 16:12:00,
2013-09-30 10:17:00,47.5,44.1,29.43,NW,306,19.0,38.0,88,0.08,,---,0.08,VWS V13.00,2013-09-30 16:17:00,
2013-09-30 10:22:00,47.0,43.9,29.47,WNW,296,19.0,38.0,89,0.09,,---,0.09,VWS V13.00,2013-09-30 16:22:00,
2013-09-30 10:27:00,46.8,43.7,29.47,WNW,303,16.0,38.0,89,0.10,,---,0.10,VWS V13.00,2013-09-30 16:27:00,
2013-09-30 10:32:00,46.8,43.7,29.47,WNW,302,6.0,38.0,89,0.10,,---,0.10,VWS V13.00,2013-09-30 16:32:00,
2013-09-30 10:37:00,46.7,43.9,29.47,WNW,298,0.0,0.0,90,0.10,,---,0.10,VWS V13.00,2013-09-30 16:37:00,
2013-09-30 10:42:00,46.8,44.0,29.47,WNW,298,0.0,0.0,90,0.10,,---,0.10,VWS V13.00,2013-09-30 16:42:00,
2013-09-30 10:47:00,46.8,44.0,29.47,WNW,298,0.0,0.0,90,0.10,,---,0.10,VWS V13.00,2013-09-30 16:47:00,
2013-09-30 10:52:00,46.8,44.0,29.48,WNW,298,0.0,0.0,90,0.10,,---,0.10,VWS V13.00,2013-09-30 16:52:00,
2013-09-30 10:57:00,46.9,44.1,29.48,SW,229,0.0,0.0,90,0.10,,---,0.10,VWS V13.00,2013-09-30 16:57:00,
2013-09-30 11:02:00,46.9,44.1,29.48,SW,214,0.0,0.0,90,0.10,,---,0.10,VWS V13.00,2013-09-30 17:02:00,
2013-09-30 11:07:00,46.9,44.1,29.50,SW,218,7.0,7.0,90,0.10,,---,0.10,VWS V13.00,2013-09-30 17:07:00,
2013-09-30 11:12:00,47.0,43.9,29.50,SW,226,0.0,10.0,89,0.05,,---,0.10,VWS V13.00,2013-09-30 17:12:00,
2013-09-30 11:17:00,46.9,43.8,29.50,SW,215,7.0,10.0,89,0.05,,---,0.10,VWS V13.00,2013-09-30 17:17:00,
2013-09-30 11:22:00,47.0,43.0,29.50,WSW,242,17.0,18.0,86,0.05,,---,0.10,VWS V13.00,2013-09-30 17:22:00,
2013-09-30 11:27:00,47.3,41.8,29.50,WSW,240,19.0,21.0,81,0.05,,---,0.10,VWS V13.00,2013-09-30 17:27:00,
2013-09-30 11:32:00,47.7,40.5,29.50,WSW,245,23.0,23.0,76,0.05,,---,0.10,VWS V13.00,2013-09-30 17:32:00,
2013-09-30 11:37:00,48.2,39.6,29.50,WSW,242,18.0,18.0,72,0.05,,---,0.10,VWS V13.00,2013-09-30 17:37:00,
2013-09-30 11:42:00,48.5,38.4,29.50,SW,236,22.0,27.0,68,0.00,,---,0.10,VWS V13.00,2013-09-30 17:42:00,
2013-09-30 11:47:00,48.6,38.2,29.50,SW,232,16.0,27.0,67,0.00,,---,0.10,VWS V13.00,2013-09-30 17:47:00,
2013-09-30 11:52:00,48.6,37.0,29.49,SW,230,15.0,30.0,64,0.00,,---,0.10,VWS V13.00,2013-09-30 17:52:00,
2013-09-30 11:57:00,48.4,37.2,29.49,WSW,241,18.0,30.0,65,0.00,,---,0.10,VWS V13.00,2013-09-30 17:57:00,
2013-09-30 12:02:00,48.2,36.6,29.49,WSW,254,11.0,30.0,64,0.00,,---,0.10,VWS V13.00,2013-09-30 18:02:00,
2013-09-30 12:07:00,48.1,36.5,29.48,SW,234,10.0,11.0,64,0.00,,---,0.10,VWS V13.00,2013-09-30 18:07:00,
2013-09-30 12:12:00,48.1,36.9,29.48,SW,224,16.0,19.0,65,0.00,,---,0.10,VWS V13.00,2013-09-30 18:12:00,
2013-09-30 12:17:00,48.0,37.6,29.48,WSW,241,20.0,20.0,67,0.00,,---,0.10,VWS V13.00,2013-09-30 18:17:00,
2013-09-30 12:22:00,48.2,36.2,29.50,WSW,249,9.0,23.0,63,0.00,,---,0.10,VWS V13.00,2013-09-30 18:22:00,
2013-09-30 12:27:00,48.3,37.1,29.50,West,260,12.0,23.0,65,0.00,,---,0.10,VWS V13.00,2013-09-30 18:27:00,
2013-09-30 12:32:00,48.2,37.0,29.50,West,266,10.0,23.0,65,0.00,,---,0.10,VWS V13.00,2013-09-30 18:32:00,
2013-09-30 12:37:00,48.2,36.2,29.51,West,270,13.0,23.0,63,0.00,,---,0.10,VWS V13.00,2013-09-30 18:37:00,
2013-09-30 12:42:00,48.4,34.8,29.51,WNW,286,18.0,22.0,59,0.00,,---,0.10,VWS V13.00,2013-09-30 18:42:00,
2013-09-30 12:47:00,48.4,33.9,29.51,WNW,293,14.0,22.0,57,0.00,,---,0.10,VWS V13.00,2013-09-30 18:47:00,
2013-09-30 12:52:00,48.6,33.6,29.51,West,281,18.0,22.0,56,0.00,,---,0.10,VWS V13.00,2013-09-30 18:52:00,
2013-09-30 12:57:00,48.8,33.4,29.51,WNW,285,16.0,22.0,55,0.00,,---,0.10,VWS V13.00,2013-09-30 18:57:00,
2013-09-30 13:02:00,48.8,33.8,29.51,West,273,15.0,22.0,56,0.00,,---,0.10,VWS V13.00,2013-09-30 19:02:00,
2013-09-30 13:07:00,48.9,32.5,29.52,WNW,286,19.0,22.0,53,0.00,,---,0.10,VWS V13.00,2013-09-30 19:07:00,
2013-09-30 13:12:00,49.1,31.3,29.52,WNW,298,13.0,21.0,50,0.00,,---,0.10,VWS V13.00,2013-09-30 19:12:00,
2013-09-30 13:17:00,49.2,31.9,29.52,West,274,14.0,21.0,51,0.00,,---,0.10,VWS V13.00,2013-09-30 19:17:00,
2013-09-30 13:22:00,49.2,33.7,29.52,WNW,290,10.0,21.0,55,0.00,,---,0.10,VWS V13.00,2013-09-30 19:22:00,
2013-09-30 13:27:00,49.2,34.2,29.52,WNW,288,8.0,21.0,56,0.00,,---,0.10,VWS V13.00,2013-09-30 19:27:00,
2013-09-30 13:32:00,49.4,35.3,29.52,West,261,10.0,21.0,58,0.00,,---,0.10,VWS V13.00,2013-09-30 19:32:00,
2013-09-30 13:37:00,49.7,31.8,29.52,West,273,13.0,21.0,50,0.00,,---,0.10,VWS V13.00,2013-09-30 19:37:00,
2013-09-30 13:42:00,50.2,32.3,29.52,WNW,283,11.0,15.0,50,0.00,,---,0.10,VWS V13.00,2013-09-30 19:42:00,
2013-09-30 13:47:00,50.5,32.6,29.52,West,263,14.0,19.0,50,0.00,,---,0.10,VWS V13.00,2013-09-30 19:47:00,
2013-09-30 13:52:00,50.4,33.9,29.50,West,259,11.0,20.0,53,0.00,,---,0.10,VWS V13.00,2013-09-30 19:52:00,
2013-09-30 13:57:00,50.3,33.4,29.50,WSW,246,10.0,20.0,52,0.00,,---,0.10,VWS V13.00,2013-09-30 19:57:00,
2013-09-30 14:02:00,50.1,33.7,29.50,WSW,241,13.0,20.0,53,0.00,,---,0.10,VWS V13.00,2013-09-30 20:02:00,
2013-09-30 14:07:00,50.0,34.0,29.51,WSW,240,10.0,20.0,54,0.00,,---,0.10,VWS V13.00,2013-09-30 20:07:00,
2013-09-30 14:12:00,50.9,36.2,29.51,West,260,9.0,15.0,57,0.00,,---,0.10,VWS V13.00,2013-09-30 20:12:00,
2013-09-30 14:17:00,53.2,37.0,29.51,WSW,249,12.0,15.0,54,0.00,,---,0.10,VWS V13.00,2013-09-30 20:17:00,
2013-09-30 14:22:00,54.8,35.5,29.48,WSW,252,15.0,16.0,48,0.00,,---,0.10,VWS V13.00,2013-09-30 20:22:00,
2013-09-30 14:27:00,55.3,32.6,29.48,West,263,14.0,24.0,42,0.00,,---,0.10,VWS V13.00,2013-09-30 20:27:00,
2013-09-30 14:32:00,55.0,31.8,29.48,WSW,246,23.0,33.0,41,0.00,,---,0.10,VWS V13.00,2013-09-30 20:32:00,
2013-09-30 14:37:00,53.9,31.4,29.49,WSW,238,19.0,33.0,42,0.00,,---,0.10,VWS V13.00,2013-09-30 20:37:00,
2013-09-30 14:42:00,53.0,29.3,29.49,WSW,256,23.0,31.0,40,0.00,,---,0.10,VWS V13.00,2013-09-30 20:42:00,
2013-09-30 14:47:00,52.5,30.1,29.49,WSW,258,28.0,34.0,42,0.00,,---,0.10,VWS V13.00,2013-09-30 20:47:00,
2013-09-30 14:51:00,52.2,29.8,29.49,WSW,257,24.0,36.0,42,0.00,,---,0.10,VWS V13.00,2013-09-30 20:51:00,
2013-09-30 14:56:00,52.0,29.6,29.49,West,263,21.0,36.0,42,0.00,,---,0.10,VWS V13.00,2013-09-30 20:56:00,
2013-09-30 15:01:00,52.4,30.6,29.49,WSW,258,16.0,36.0,43,0.00,,---,0.10,VWS V13.00,2013-09-30 21:01:00,
2013-09-30 15:06:00,52.0,30.2,29.50,West,262,21.0,36.0,43,0.00,,---,0.10,VWS V13.00,2013-09-30 21:06:00,
2013-09-30 15:11:00,51.8,29.5,29.50,West,262,27.0,37.0,42,0.00,,---,0.10,VWS V13.00,2013-09-30 21:11:00,
2013-09-30 15:17:00,52.8,30.4,29.50,West,271,26.0,37.0,42,0.00,,---,0.10,VWS V13.00,2013-09-30 21:17:00,
2013-09-30 15:22:00,53.9,30.1,29.47,West,263,27.0,37.0,40,0.00,,---,0.10,VWS V13.00,2013-09-30 21:22:00,
2013-09-30 15:27:00,54.6,30.8,29.47,West,267,21.0,37.0,40,0.00,,---,0.10,VWS V13.00,2013-09-30 21:27:00,
2013-09-30 15:32:00,54.8,30.3,29.47,West,269,28.0,37.0,39,0.00,,---,0.10,VWS V13.00,2013-09-30 21:32:00,
2013-09-30 15:37:00,55.1,31.2,29.46,WSW,252,32.0,37.0,40,0.00,,---,0.10,VWS V13.00,2013-09-30 21:37:00,
2013-09-30 15:42:00,55.2,29.4,29.46,SW,236,22.0,36.0,37,0.00,,---,0.10,VWS V13.00,2013-09-30 21:42:00,
2013-09-30 15:47:00,55.2,29.4,29.46,West,268,30.0,37.0,37,0.00,,---,0.10,VWS V13.00,2013-09-30 21:47:00,
2013-09-30 15:52:00,55.3,29.5,29.45,West,264,18.0,37.0,37,0.00,,---,0.10,VWS V13.00,2013-09-30 21:52:00,
2013-09-30 15:57:00,55.7,28.5,29.45,West,269,25.0,38.0,35,0.00,,---,0.10,VWS V13.00,2013-09-30 21:57:00,
2013-09-30 16:02:00,55.9,30.0,29.45,West,260,31.0,38.0,37,0.00,,---,0.10,VWS V13.00,2013-09-30 22:02:00,
2013-09-30 16:07:00,55.8,28.6,29.44,WSW,252,33.0,43.0,35,0.00,,---,0.10,VWS V13.00,2013-09-30 22:07:00,
2013-09-30 16:12:00,55.6,28.4,29.44,WSW,248,33.0,40.0,35,0.00,,---,0.10,VWS V13.00,2013-09-30 22:12:00,
2013-09-30 16:17:00,55.7,29.2,29.44,West,263,25.0,40.0,36,0.00,,---,0.10,VWS V13.00,2013-09-30 22:17:00,
2013-09-30 16:22:00,55.7,27.8,29.45,West,263,20.0,41.0,34,0.00,,---,0.10,VWS V13.00,2013-09-30 22:22:00,
2013-09-30 16:27:00,55.5,28.3,29.45,West,259,29.0,41.0,35,0.00,,---,0.10,VWS V13.00,2013-09-30 22:27:00,
2013-09-30 16:32:00,55.5,29.0,29.45,West,274,23.0,41.0,36,0.00,,---,0.10,VWS V13.00,2013-09-30 22:32:00,
2013-09-30 16:37:00,55.2,28.0,29.47,West,267,24.0,33.0,35,0.00,,---,0.10,VWS V13.00,2013-09-30 22:37:00,
2013-09-30 16:42:00,55.1,28.0,29.47,West,272,24.0,41.0,35,0.00,,---,0.10,VWS V13.00,2013-09-30 22:42:00,
2013-09-30 16:47:00,55.0,27.9,29.47,West,275,26.0,42.0,35,0.00,,---,0.10,VWS V13.00,2013-09-30 22:47:00,
2013-09-30 16:52:00,55.0,27.9,29.48,West,260,32.0,42.0,35,0.00,,---,0.10,VWS V13.00,2013-09-30 22:52:00,
2013-09-30 16:57:00,54.9,26.4,29.48,West,267,29.0,42.0,33,0.00,,---,0.10,VWS V13.00,2013-09-30 22:57:00,
2013-09-30 17:02:00,54.9,28.5,29.48,West,261,32.0,42.0,36,0.00,,---,0.10,VWS V13.00,2013-09-30 23:02:00,
2013-09-30 17:07:00,54.8,26.3,29.48,West,266,28.0,42.0,33,0.00,,---,0.10,VWS V13.00,2013-09-30 23:07:00,
2013-09-30 17:12:00,54.6,26.8,29.48,West,268,25.0,42.0,34,0.00,,---,0.10,VWS V13.00,2013-09-30 23:12:00,
2013-09-30 17:17:00,54.5,26.0,29.48,West,270,30.0,44.0,33,0.00,,---,0.10,VWS V13.00,2013-09-30 23:17:00,
2013-09-30 17:22:00,54.4,27.3,29.47,WSW,252,32.0,45.0,35,0.00,,---,0.10,VWS V13.00,2013-09-30 23:22:00,
2013-09-30 17:27:00,54.2,26.5,29.47,West,265,33.0,45.0,34,0.00,,---,0.10,VWS V13.00,2013-09-30 23:27:00,
2013-09-30 17:32:00,54.0,26.3,29.47,West,264,24.0,45.0,34,0.00,,---,0.10,VWS V13.00,2013-09-30 23:32:00,
2013-09-30 17:37:00,53.9,26.9,29.49,WSW,249,38.0,38.0,35,0.00,,---,0.10,VWS V13.00,2013-09-30 23:37:00,
2013-09-30 17:42:00,53.7,26.7,29.49,West,263,23.0,38.0,35,0.00,,---,0.10,VWS V13.00,2013-09-30 23:42:00,
2013-09-30 17:47:00,53.6,26.6,29.49,WSW,248,33.0,38.0,35,0.00,,---,0.10,VWS V13.00,2013-09-30 23:47:00,
2013-09-30 17:52:00,53.3,27.0,29.49,SW,236,36.0,38.0,36,0.00,,---,0.10,VWS V13.00,2013-09-30 23:52:00,
2013-09-30 17:57:00,53.1,26.9,29.49,West,259,23.0,40.0,36,0.00,,---,0.10,VWS V13.00,2013-09-30 23:57:00,
2013-09-30 18:02:00,53.0,26.1,29.49,West,275,29.0,40.0,35,0.00,,---,0.10,VWS V13.00,2013-10-01 00:02:00,
2013-09-30 18:07:00,52.9,26.0,29.50,West,259,27.0,30.0,35,0.00,,---,0.10,VWS V13.00,2013-10-01 00:07:00,
2013-09-30 18:12:00,52.8,26.6,29.50,West,265,29.0,34.0,36,0.00,,---,0.10,VWS V13.00,2013-10-01 00:12:00,
2013-09-30 18:17:00,52.6,26.4,29.50,West,268,26.0,38.0,36,0.00,,---,0.10,VWS V13.00,2013-10-01 00:17:00,
2013-09-30 18:22:00,52.3,26.2,29.51,West,265,26.0,38.0,36,0.00,,---,0.10,VWS V13.00,2013-10-01 00:22:00,
2013-09-30 18:27:00,52.1,26.0,29.51,SW,232,34.0,38.0,36,0.00,,---,0.10,VWS V13.00,2013-10-01 00:27:00,
2013-09-30 18:32:00,51.9,25.8,29.51,West,269,33.0,38.0,36,0.00,,---,0.10,VWS V13.00,2013-10-01 00:32:00,
2013-09-30 18:37:00,51.6,25.5,29.52,West,274,22.0,27.0,36,0.00,,---,0.10,VWS V13.00,2013-10-01 00:37:00,
2013-09-30 18:42:00,51.2,25.8,29.52,West,271,25.0,33.0,37,0.00,,---,0.10,VWS V13.00,2013-10-01 00:42:00,
2013-09-30 18:47:00,51.0,26.3,29.52,West,272,24.0,33.0,38,0.00,,---,0.10,VWS V13.00,2013-10-01 00:47:00,
2013-09-30 18:52:00,50.6,26.0,29.55,West,275,25.0,33.0,38,0.00,,---,0.10,VWS V13.00,2013-10-01 00:52:00,
2013-09-30 18:57:00,50.2,25.6,29.55,West,272,25.0,33.0,38,0.00,,---,0.10,VWS V13.00,2013-10-01 00:57:00,
2013-09-30 19:02:00,50.0,26.0,29.55,West,263,23.0,33.0,39,0.00,,---,0.10,VWS V13.00,2013-10-01 01:02:00,
2013-09-30 19:07:00,49.8,25.9,29.56,West,273,28.0,33.0,39,0.00,,---,0.10,VWS V13.00,2013-10-01 01:07:00,
2013-09-30 19:12:00,49.8,25.9,29.56,West,280,21.0,33.0,39,0.00,,---,0.10,VWS V13.00,2013-10-01 01:12:00,
2013-09-30 19:17:00,49.5,25.6,29.56,WNW,283,20.0,33.0,39,0.00,,---,0.10,VWS V13.00,2013-10-01 01:17:00,
2013-09-30 19:22:00,49.2,25.3,29.57,West,263,24.0,33.0,39,0.00,,---,0.10,VWS V13.00,2013-10-01 01:22:00,
2013-09-30 19:27:00,49.2,25.3,29.57,West,269,23.0,33.0,39,0.00,,---,0.10,VWS V13.00,2013-10-01 01:27:00,
2013-09-30 19:32:00,49.1,25.8,29.57,West,263,21.0,33.0,40,0.00,,---,0.10,VWS V13.00,2013-10-01 01:32:00,
2013-09-30 19:37:00,48.8,25.6,29.58,West,273,20.0,23.0,40,0.00,,---,0.10,VWS V13.00,2013-10-01 01:37:00,
2013-09-30 19:42:00,48.5,25.3,29.58,West,259,21.0,23.0,40,0.00,,---,0.10,VWS V13.00,2013-10-01 01:42:00,
2013-09-30 19:47:00,48.1,26.1,29.58,West,260,14.0,23.0,42,0.00,,---,0.10,VWS V13.00,2013-10-01 01:47:00,
2013-09-30 19:52:00,47.7,25.8,29.59,WSW,253,15.0,23.0,42,0.00,,---,0.10,VWS V13.00,2013-10-01 01:52:00,
2013-09-30 19:57:00,47.4,26.0,29.59,West,263,15.0,23.0,43,0.00,,---,0.10,VWS V13.00,2013-10-01 01:57:00,
2013-09-30 20:02:00,47.3,26.0,29.59,West,267,15.0,23.0,43,0.00,,---,0.10,VWS V13.00,2013-10-01 02:02:00,
2013-09-30 20:07:00,47.1,26.3,29.62,West,264,11.0,13.0,44,0.00,,---,0.10,VWS V13.00,2013-10-01 02:07:00,
2013-09-30 20:12:00,46.8,26.0,29.62,West,263,10.0,16.0,44,0.00,,---,0.10,VWS V13.00,2013-10-01 02:12:00,
2013-09-30 20:17:00,46.6,26.4,29.62,West,264,8.0,16.0,45,0.00,,---,0.10,VWS V13.00,2013-10-01 02:17:00,
2013-09-30 20:22:00,46.5,25.8,29.63,West,272,9.0,18.0,44,0.00,,---,0.10,VWS V13.00,2013-10-01 02:22:00,
2013-09-30 20:28:00,46.4,26.2,29.63,West,269,7.0,18.0,45,0.00,,---,0.10,VWS V13.00,2013-10-01 02:28:00,
2013-09-30 20:33:00,46.0,25.9,29.63,WSW,257,11.0,18.0,45,0.00,,---,0.10,VWS V13.00,2013-10-01 02:33:00,
2013-09-30 20:38:00,46.0,25.9,29.63,West,270,17.0,18.0,45,0.00,,---,0.10,VWS V13.00,2013-10-01 02:38:00,
2013-09-30 20:43:00,46.4,26.2,29.63,West,271,12.0,20.0,45,0.00,,---,0.10,VWS V13.00,2013-10-01 02:43:00,
2013-09-30 20:48:00,46.5,26.3,29.63,West,277,12.0,21.0,45,0.00,,---,0.10,VWS V13.00,2013-10-01 02:48:00,
2013-09-30 20:53:00,46.6,26.4,29.65,WNW,291,16.0,21.0,45,0.00,,---,0.10,VWS V13.00,2013-10-01 02:53:00,
2013-09-30 20:58:00,46.5,26.3,29.65,West,276,6.0,21.0,45,0.00,,---,0.10,VWS V13.00,2013-10-01 02:58:00,
2013-09-30 21:03:00,46.3,26.1,29.65,West,269,11.0,21.0,45,0.00,,---,0.10,VWS V13.00,2013-10-01 03:03:00,
2013-09-30 21:08:00,46.2,26.6,29.65,West,273,13.0,15.0,46,0.00,,---,0.10,VWS V13.00,2013-10-01 03:08:00,
2013-09-30 21:13:00,46.0,26.4,29.65,West,278,14.0,22.0,46,0.00,,---,0.10,VWS V13.00,2013-10-01 03:13:00,
2013-09-30 21:18:00,45.9,26.8,29.65,WNW,286,15.0,22.0,47,0.00,,---,0.10,VWS V13.00,2013-10-01 03:18:00,
2013-09-30 21:23:00,45.9,26.8,29.65,West,268,13.0,22.0,47,0.00,,---,0.10,VWS V13.00,2013-10-01 03:23:00,
2013-09-30 21:28:00,45.6,26.5,29.65,West,268,16.0,22.0,47,0.00,,---,0.10,VWS V13.00,2013-10-01 03:28:00,
2013-09-30 21:33:00,45.4,26.9,29.65,West,271,13.0,22.0,48,0.00,,---,0.10,VWS V13.00,2013-10-01 03:33:00,
2013-09-30 21:37:00,45.1,26.6,29.67,West,276,11.0,20.0,48,0.00,,---,0.10,VWS V13.00,2013-10-01 03:37:00,
2013-09-30 21:42:00,45.1,27.1,29.67,West,271,13.0,20.0,49,0.00,,---,0.10,VWS V13.00,2013-10-01 03:42:00,
2013-09-30 21:48:00,45.4,27.4,29.67,West,267,25.0,25.0,49,0.00,,---,0.10,VWS V13.00,2013-10-01 03:48:00,
2013-09-30 21:53:00,45.7,27.6,29.71,West,271,20.0,25.0,49,0.00,,---,0.10,VWS V13.00,2013-10-01 03:53:00,
2013-09-30 21:58:00,45.8,27.7,29.71,West,274,12.0,25.0,49,0.00,,---,0.10,VWS V13.00,2013-10-01 03:58:00,
2013-09-30 22:01:00,45.8,27.2,29.71,West,272,20.0,25.0,48,0.00,,---,0.10,VWS V13.00,2013-10-01 04:01:00,
2013-09-30 22:06:00,45.8,27.7,29.72,West,270,14.0,25.0,49,0.00,,---,0.10,VWS V13.00,2013-10-01 04:06:00,
2013-09-30 22:11:00,45.6,27.6,29.72,West,275,11.0,19.0,49,0.00,,---,0.10,VWS V13.00,2013-10-01 04:11:00,
2013-09-30 22:16:00,45.2,27.7,29.72,West,278,9.0,19.0,50,0.00,,---,0.10,VWS V13.00,2013-10-01 04:16:00,
2013-09-30 22:21:00,44.6,27.6,29.73,West,271,10.0,19.0,51,0.00,,---,0.10,VWS V13.00,2013-10-01 04:21:00,
2013-09-30 22:26:00,44.1,27.6,29.73,West,272,10.0,19.0,52,0.00,,---,0.10,VWS V13.00,2013-10-01 04:26:00,
2013-09-30 22:31:00,43.8,27.3,29.73,West,275,12.0,19.0,52,0.00,,---,0.10,VWS V13.00,2013-10-01 04:31:00,
2013-09-30 22:36:00,43.7,27.7,29.75,West,269,17.0,21.0,53,0.00,,---,0.10,VWS V13.00,2013-10-01 04:36:00,
2013-09-30 22:41:00,44.0,28.0,29.75,WNW,284,18.0,22.0,53,0.00,,---,0.10,VWS V13.00,2013-10-01 04:41:00,
2013-09-30 22:46:00,44.5,28.0,29.75,West,279,17.0,25.0,52,0.00,,---,0.10,VWS V13.00,2013-10-01 04:46:00,
2013-09-30 22:52:00,44.9,27.9,29.75,West,265,14.0,25.0,51,0.00,,---,0.10,VWS V13.00,2013-10-01 04:52:00,
2013-09-30 22:57:00,45.1,27.6,29.75,West,264,13.0,25.0,50,0.00,,---,0.10,VWS V13.00,2013-10-01 04:57:00,
2013-09-30 23:02:00,45.1,27.6,29.75,WNW,296,11.0,25.0,50,0.00,,---,0.10,VWS V13.00,2013-10-01 05:02:00,
2013-09-30 23:07:00,44.5,27.5,29.75,West,273,9.0,11.0,51,0.00,,---,0.10,VWS V13.00,2013-10-01 05:07:00,
2013-09-30 23:12:00,44.2,27.2,29.75,West,263,15.0,22.0,51,0.00,,---,0.10,VWS V13.00,2013-10-01 05:12:00,
2013-09-30 23:17:00,44.6,27.6,29.75,WSW,252,15.0,24.0,51,0.00,,---,0.10,VWS V13.00,2013-10-01 05:17:00,
2013-09-30 23:22:00,44.8,27.3,29.75,West,264,16.0,24.0,50,0.00,,---,0.10,VWS V13.00,2013-10-01 05:22:00,
2013-09-30 23:27:00,45.2,27.7,29.75,West,262,23.0,24.0,50,0.00,,---,0.10,VWS V13.00,2013-10-01 05:27:00,
2013-09-30 23:32:00,45.3,27.8,29.75,West,261,13.0,24.0,50,0.00,,---,0.10,VWS V13.00,2013-10-01 05:32:00,
2013-09-30 23:37:00,45.0,28.0,29.76,WSW,252,11.0,24.0,51,0.00,,---,0.10,VWS V13.00,2013-10-01 05:37:00,
2013-09-30 23:42:00,44.6,28.1,29.76,West,259,9.0,15.0,52,0.00,,---,0.00,VWS V13.00,2013-10-01 05:42:00,
2013-09-30 23:47:00,44.1,27.6,29.76,WSW,256,9.0,15.0,52,0.00,,---,0.00,VWS V13.00,2013-10-01 05:47:00,
2013-09-30 23:52:00,43.8,27.8,29.76,WSW,249,10.0,15.0,53,0.00,,---,0.00,VWS V13.00,2013-10-01 05:52:00,
2013-09-30 23:57:00,43.6,27.1,29.76,West,260,10.0,15.0,52,0.00,,---,0.00,VWS V13.00,2013-10-01 05:57:00,